Regional Weather Roundup
Issued by NWS Sterling, VA

Home | Current Version | Previous Version | Graphics & Text | Print | Product List | Glossary On
Versions: 1 2 3 4 5 6 7 8 9 10 11 12 13 14 15 16 17 18 19 20 21 22 23 24 25 26 27 28 29 30 31 32 33 34 35 36 37 38 39 40 41 42 43 44 45 46 47 48 49 50
903
ASUS41 KLWX 051710
RWRLWX

REGIONAL WEATHER ROUNDUP
NATIONAL WEATHER SERVICE BALTIMORE MD/WASHINGTON DC
1200 PM EST FRI FEB 05 2016

Note: "FAIR" indicates few or no clouds below 12,000 feet
with no significant weather and/or obstructions to visibility.
 TC=TEMPERATURE CELSIUS

 * =Non NWS site. Station does not report precipitation (e.g. rain,
    snow, etc.), thunder, or fog.

DCZ001-MDZ009-015-VAZ040>042-051-053>054-051800-
WASHINGTON METRO

CITY           SKY/WX    TMP DP  RH WIND       PRES   REMARKS
WASHINGTON NAT FAIR      41  25  53 NW22G29   30.28R
DULLES         PTSUNNY   38  21  50 NW21G26   30.30R WCI  28
ANDREWS AFB    MOSUNNY   40  26  57 NW21G30   30.25R
FT BELVOIR     FAIR      40  21  45 NW25G31   30.29R
QUANTICO       FAIR      42  22  44 N21G37    30.31R
COLLEGE PARK*  FAIR      43  25  49 NW18G24   30.26S
LEESBURG*      PTSUNNY   39  28  65 NW14G21   30.30S
MANASSAS*      MOSUNNY   41  23  48 NW16G29   30.31R
GAITHERSBURG*  SUNNY     37  21  52 NW17G24   30.29S WCI  28

$$

MDZ006>007-011-014-051800-
BALTIMORE METRO

CITY           SKY/WX    TMP DP  RH WIND       PRES   REMARKS
BWI AIRPORT    PTSUNNY   40  32  73 NW12      30.23F
MD SCIENCE CTR   N/A     41  27  57 MISG      30.24R
MARTIN STATE   PTSUNNY   43  30  61 NW15G23     N/A
ANNAPOLIS      MIX PCPN  38  32  79 W8        30.24R
FORT MEADE*    PTSUNNY   39  32  75 NW14G23   30.27S

$$

MDZ012-015-019>023-051800-
MARYLAND EASTERN SHORE

CITY           SKY/WX    TMP DP  RH WIND       PRES   REMARKS
OCEAN CITY     MOSUNNY   38  32  79 N17G25    30.17R WCI  28
SALISBURY      MOSUNNY   40  34  79 NW15G23   30.19R
BAY BRIDGE AP*   N/A     39  32  75 W17G23    30.24R
CAMBRIDGE*     PTSUNNY   37  32  81 NW16G24   30.22R WCI  28
EASTON*        PTSUNNY   39  34  81 NW17G29   30.25R

$$

MDZ017>025-051800-
SOUTHERN MARYLAND

CITY           SKY/WX    TMP DP  RH WIND       PRES   REMARKS
PATUXENT RIVER PTSUNNY   40  30  67 NW20      30.26R
ST INIGOES     PTSUNNY   40  30  67 W21       30.25R
LEONARDTOWN*   CLOUDY    37  30  75 NW9G17    30.27R

$$

MDZ003>005-051800-
NORTH CENTRAL MARYLAND

CITY           SKY/WX    TMP DP  RH WIND       PRES   REMARKS
FREDERICK*     MOSUNNY   39  27  60 NW16      30.30S
HAGERSTOWN APT MOSUNNY   38  20  48 W18       30.28R WCI  28
WESTMINSTER*   PTSUNNY   37  28  70 NW15G24   30.22S WCI  28

$$

MDZ501>502-051800-
WESTERN MARYLAND

CITY           SKY/WX    TMP DP  RH WIND       PRES   REMARKS
OAKLAND*       CLOUDY    23  16  74 NW9       30.24S WCI  13
CUMBERLAND*    MOSUNNY   34  19  55 N9        30.37F WCI  26

$$

VAZ025>031-051800-
SHENANDOAH VALLEY

CITY           SKY/WX    TMP DP  RH WIND       PRES   REMARKS
WINCHESTER*    FAIR      37  19  48 NW12G25   30.31R
FRONT ROYAL*   FAIR      36  18  48 N14       30.31S WCI  27
LURAY*         FAIR      36  18  48 W12G21    30.33S WCI  27
NEW MARKET*    PTSUNNY   35  17  48 N6G18     30.33S
STAUNTON*      FAIR      40  17  38 NW12      30.33F
WAYNESBORO*    FAIR      35  12  39 NW9G17    30.30F WCI  28

$$

WVZ021-048>050-054>055-051800-
EASTERN WEST VIRGINIA PANHANDLE

CITY           SKY/WX    TMP DP  RH WIND       PRES   REMARKS
MARTINSBURG    PTSUNNY   37  18  46 NW21G30   30.31R WCI  26
PETERSBURG*    FAIR      35  15  44 W9        30.36S WCI  28

$$

VAZ036>039-050-051800-
CENTRAL FOOTHILLS

CITY           SKY/WX    TMP DP  RH WIND       PRES   REMARKS
CHARLOTTESVILL FAIR      40  16  37 NW12G23   30.32S
CULPEPER*      FAIR      39  19  43 NW10G20   30.32S
ORANGE*        FAIR      41  21  45 W12G17    30.34S
GORDONSVILLE*  FAIR      39  19  43 W12G20    30.32S
WARRENTON*     FAIR      41  24  50 NW14G23   30.30S

$$

VAZ055>057-051800-
NORTH AND CENTRAL PIEDMONT

CITY           SKY/WX    TMP DP  RH WIND       PRES   REMARKS
FREDERICKSBRG* FAIR      39  22  49 NW15G25   30.30S
STAFFORD*      FAIR      40  22  48 NW21G28   30.35S

$$

NCZ024-NYZ072-PAZ021-071-VAZ022-071-051800-
OTHER REGIONAL OBSERVATIONS

CITY           SKY/WX    TMP DP  RH WIND       PRES   REMARKS
NEW YORK CITY  CLOUDY    32  28  85 VRB6G22   30.09F FOG
PHILADELPHIA   MOSUNNY   42  29  59 NW13      30.15F
PITTSBURGH     MOSUNNY   30  16  56 NW7       30.35F
ROANOKE        FAIR      39  14  36 NW21G26   30.35F WCI  29
RICHMOND       PTSUNNY   40  24  53 NW16G24   30.30R
RALEIGH        MOSUNNY   44  22  41 VRB6G16   30.33F

$$

ANZ530>537-051800-
MARINE OBSERVATIONS

STATION/POSITION TIME  TEMP    WIND        PRES
                       AIR SEA DIR/SP/G
                 (UTC) (F)     (DEG/KT/KT) (MB)
THOMAS PT LIGHT  1600   37     300/ 17       N/A
BALT KEY BRIDGE  1600   38     280/ 17/ 20 1023.3R
COVE POINT       1600   37     330/ 17/ 25 1024.1R
LEWISETTA        1600   39 44  330/ 18/ 23 1024.0R
SOLOMONS ISLAND  1600   38 41  310/ 13/ 20   N/A

$$





USA.gov is the U.S. government's official web portal to all federal, state and local government web resources and services.